Presure
218 127 211 191 203 218 194 164 240 227 292 280 266 342 368 103 352 223 358 366 220 182 85 75 195 144 133 116 136 109 116 123 133 104 127 134 135 127 110 124 122 123 95 112 104 122 129 95 123
169 180 218 218 220 212 252 252 271 284 221 397 377 260 294 329 280 284 298 286 213 131 194 89 95 104 148 139 176 134 127 134 118 125 133 133 125 127 132 134 128 121 118 124 112 120 125 130 114
94 212 226 237 230 186 166 104 268 363 258 349 264 301 267 257 244 253 249 214 202 193 192 181 142 176 121 139 107 182 101 120 108 127 119 118 127 126 122 125 144 125 129 119 131 132 132 135 132
194 226 233 240 242 247 253 270 365 355 343 103 360 245 238 211 222 247 248 179 188 170 115 193 194 139 107 108 108 124 105 131 187 128 117 132 134 133 130 126 141 124 108 110 133 137 96 118 144
154 211 165 154 225 219 259 317 299 345 331 280 263 242 119 208 241 220 220 211 190 128 189 163 140 173 184 126 173 143 124 158 133 131 123 122 126 134 109 133 135 105 139 130 119 109 104 112 121
221 223 170 245 254 253 305 289 181 297 242 274 246 233 210 235 211 224 226 211 212 208 186 178 122 162 157 201 167 129 175 109 152 133 138 126 130 123 118 133 123 122 140 111 85 123 131 143 124
218 226 224 186 213 315 290 274 272 259 224 223 262 111 144 118 218 215 217 169 199 182 175 185 172 144 115 100 126 174 187 97 80 94 145 140 126 152 128 134 103 125 103 144 142 110 127 121 130
223 230 237 242 304 288 313 277 274 264 233 233 228 231 228 213 230 224 209 112 167 189 110 189 83 185 183 111 126 125 108 183 120 229 103 151 198 124 150 153 126 134 132 135 137 138 145 134 141
202 221 234 237 309 278 292 259 252 246 238 204 201 217 207 236 216 197 214 191 189 128 109 112 165 161 97 177 128 110 153 133 216 129 167 108 128 124 125 129 133 136 139 121 129 140 117 148 139
218 152 223 224 250 274 295 290 250 222 215 228 207 202 212 212 220 217 212 252 197 197 190 199 185 126 116 123 119 163 92 125 146 181 198 195 176 114 126 123 127 130 132 130 142 131 129 134 127
212 208 212 271 288 283 261 247 210 235 210 208 229 200 215 215 199 238 173 221 239 192 253 214 175 183 183 198 192 193 177 195 179 181 211 217 222 219 144 176 135 128 129 114 133 142 114 133 113
200 212 209 244 281 268 276 220 213 229 198 212 229 249 202 221 207 218 203 228 238 213 191 193 224 202 200 186 201 184 199 196 163 117 198 193 191 192 131 217 141 126 126 126 115 134 103 129 120
191 217 212 229 222 244 246 270 216 210 223 218 239 213 243 249 203 202 215 198 197 239 200 183 219 210 195 194 182 179 206 201 191 167 180 138 212 209 172 175 108 139 215 171 164 135 142 135 141
205 210 215 206 273 238 246 243 220 222 209 229 258 260 261 231 209 243 309 247 214 215 204 199 192 197 194 185 201 183 203 172 188 186 139 132 201 204 189 207 152 138 138 149 141 140 133 167 130
205 212 203 214 213 249 245 228 208 219 191 231 244 236 250 261 264 278 216 256 233 208 205 196 196 212 204 116 194 170 190 194 202 157 201 204 204 196 136 213 135 139 124 199 200 149 149 125 121
188 198 184 201 207 229 246 223 225 228 223 234 230 227 232 242 245 263 213 240 215 196 215 180 182 184 182 180 184 184 186 182 186 199 190 196 218 184 185 125 114 183 203 210 183 134 134 129 135
190 187 214 202 205 208 262 219 225 220 243 238 208 241 225 230 243 238 237 225 209 205 191 191 191 202 186 154 186 208 182 186 193 195 194 198 189 185 197 195 193 205 209 196 167 161 134 125 170
189 190 219 199 201 215 211 218 229 226 228 226 217 234 232 231 238 232 241 206 202 205 202 193 221 204 205 196 194 188 183 196 190 195 196 192 182 199 195 195 205 186 207 195 152 189 197 134 128
187 177 186 207 200 209 225 253 208 226 227 206 225 224 224 217 219 235 247 269 272 226 218 202 200 202 215 190 189 189 189 190 192 196 194 196 204 143 200 198 207 198 190 132 110 129 202 202 193
158 186 199 196 193 196 217 204 257 261 229 219 215 228 222 223 229 229 234 233 222 254 247 249 240 213 203 212 200 203 203 175 139 229 212 209 203 200 127 181 210 114 123 193 195 211 184 129 123
183 202 180 176 193 202 211 231 267 207 266 240 232 228 224 215 209 212 224 234 228 203 219 202 202 220 216 174 215 215 238 217 240 218 220 238 156 154 151 123 173 217 215 194 132 131 132 132 158
169 208 195 197 187 215 187 212 208 266 206 245 240 225 228 215 220 214 203 219 214 226 214 190 198 218 229 219 214 210 208 225 212 126 200 136 125 138 204 195 186 191 203 182 181 194 193 201 188
186 192 173 184 188 181 213 198 219 226 253 241 248 230 230 230 226 210 203 197 197 218 208 216 210 201 214 217 215 218 122 216 207 203 187 187 195 191 195 204 195 191 193 194 188 188 184 190 190
174 170 174 182 202 185 186 210 197 204 224 223 212 237 231 222 226 219 206 217 202 194 203 212 186 199 199 198 191 193 176 127 134 151 186 181 203 201 201 205 184 209 210 186 189 190 206 227 212
175 198 194 172 208 187 185 208 195 202 216 237 226 219 257 228 213 227 231 222 205 199 198 211 201 197 193 203 200 195 200 195 194 196 198 190 191 193 192 190 196 200 200 197 199 193 202 221 227
169 193 176 182 193 205 196 202 195 172 219 211 296 231 217 242 257 231 222 207 228 213 201 202 231 207 219 215 221 190 184 191 199 199 195 204 198 200 202 209 204 199 191 195 243 237 220 207 208
175 173 182 170 166 185 194 205 184 225 194 207 236 259 219 216 216 257 224 219 211 207 208 210 200 199 193 200 203 204 202 204 209 207 197 191 193 190 184 194 222 233 221 225 223 214 214 209 215
201 169 204 178 203 184 189 202 200 227 188 205 212 241 237 245 196 215 260 251 233 218 225 213 221 210 206 206 209 209 207 212 207 221 235 223 228 229 229 213 216 226 223 205 211 208 209 216 220
184 176 163 182 184 196 202 199 173 207 185 147 166 218 233 229 304 212 196 244 244 210 206 215 213 218 204 203 213 220 221 202 193 196 200 204 197 200 210 219 216 208 208 211 204 199 223 204 204
187 160 202 198 187 195 186 200 186 187 189 192 129 208 243 235 203 314 243 219 231 229 213 213 220 201 196 189 199 214 194 203 184 217 207 216 196 201 209 208 200 211 206 197 204 230 212 206 217
Wind_Speed
80 51 74 69 79 80 81 78 72 71 63 57 56 36 30 54 35 47 40 30 31 41 28 24 53 87 81 46 74 51 52 55 66 46 62 66 69 66 47 63 59 59 41 49 43 54 59 37 54
61 71 79 79 81 73 74 73 68 58 34 22 24 35 30 25 23 22 25 32 57 37 62 38 41 33 80 63 66 81 65 75 56 64 69 69 63 64 71 73 66 53 51 58 44 47 55 58 50
30 79 78 74 76 65 54 47 59 13 16 10 23 24 27 21 30 34 20 57 64 61 50 73 66 69 47 68 40 43 45 62 41 65 58 54 65 64 56 55 72 54 61 50 62 61 61 63 62
80 74 70 68 73 72 67 59 6 8 5 41 15 31 34 38 32 35 65 59 61 67 32 52 65 70 54 53 38 53 37 74 72 63 48 76 75 71 67 57 73 54 39 40 60 63 40 54 71
65 72 67 67 70 69 61 8 3 3 8 7 44 43 26 42 41 40 69 76 75 42 72 75 66 74 71 69 73 78 52 77 47 78 60 54 60 71 43 62 69 39 73 58 49 42 49 51 50
65 66 46 64 62 59 15 12 21 18 15 19 42 41 48 41 43 41 57 75 73 66 82 72 33 76 72 64 76 48 85 34 82 70 84 63 62 54 53 65 54 52 75 54 26 63 58 67 47
62 62 66 48 46 6 16 8 17 18 25 28 27 29 31 31 38 50 65 58 79 72 74 47 80 38 36 27 56 55 48 26 26 27 86 77 54 86 61 67 45 57 46 78 75 47 54 57 53
55 53 54 51 22 17 6 10 7 21 35 33 33 39 30 52 43 52 70 45 70 84 38 88 21 68 62 21 36 58 25 75 44 45 27 75 61 52 82 85 59 70 64 67 67 66 76 61 69
62 50 48 48 19 13 17 16 20 20 17 42 40 46 53 33 54 55 68 73 86 54 38 45 72 73 32 77 47 20 65 57 58 39 56 41 60 60 56 62 67 72 73 58 64 70 59 79 69
45 44 45 45 30 11 14 14 17 26 29 20 38 45 45 39 49 54 58 58 91 83 71 85 84 48 43 49 32 76 38 63 59 44 67 52 69 52 59 59 62 63 65 62 78 59 55 66 69
40 46 44 27 19 12 9 15 28 11 33 30 31 41 46 52 46 49 46 62 62 86 64 84 85 90 93 77 94 89 80 72 58 58 49 45 43 54 62 85 72 59 60 46 67 81 53 65 57
43 42 42 35 15 21 11 12 16 11 30 28 31 27 41 51 51 47 52 51 60 76 72 76 84 95 88 96 87 82 76 74 68 48 60 59 61 58 64 54 75 55 55 60 52 70 53 59 57
46 34 36 35 30 13 18 12 18 22 17 25 21 26 33 43 52 47 58 59 53 67 80 79 77 86 96 90 82 74 69 67 66 62 64 48 63 58 49 49 43 72 58 71 68 70 81 68 72
37 36 32 34 14 27 6 18 24 17 15 15 16 14 20 41 41 38 35 54 50 68 73 74 80 78 81 65 81 65 68 70 70 71 60 58 61 62 62 60 57 69 73 72 78 75 67 67 66
30 29 27 31 31 21 11 10 14 9 24 8 4 8 6 6 12 17 44 67 65 66 74 73 79 76 80 34 68 63 66 73 71 61 66 60 58 61 62 54 62 62 45 57 60 85 88 59 56
36 30 26 26 27 28 16 24 20 8 11 7 2 12 12 12 10 14 38 61 61 63 67 58 62 66 64 67 68 68 66 72 69 71 60 59 57 62 64 49 43 60 59 59 67 70 72 69 76
33 32 27 27 25 24 15 23 24 21 9 4 7 12 12 10 13 29 29 56 54 66 60 59 67 69 72 52 72 64 66 70 71 69 64 63 60 65 60 60 62 62 63 64 68 71 71 64 73
26 32 31 27 25 30 24 22 23 27 11 5 9 10 7 8 12 21 30 43 46 55 61 61 67 78 84 81 79 67 68 70 70 70 67 69 62 67 62 63 62 63 67 65 69 68 71 61 73
25 35 32 28 26 22 32 20 22 22 19 16 14 15 19 18 16 16 16 14 36 60 57 56 58 62 74 64 63 64 64 65 69 73 77 76 71 48 68 67 65 66 65 61 56 69 75 76 77
25 25 23 23 26 24 26 23 14 20 24 22 24 24 19 16 13 15 17 27 35 28 48 57 66 63 65 73 67 69 67 57 45 61 69 72 71 68 42 61 63 51 53 70 72 74 74 73 71
25 27 33 29 29 27 29 30 14 18 18 23 26 28 21 17 14 13 16 18 26 35 35 45 48 50 54 42 57 54 45 55 44 52 51 54 54 54 54 48 56 60 63 66 70 72 76 77 80
36 42 28 23 30 29 22 28 19 13 16 22 31 24 28 21 19 17 13 15 16 24 30 33 31 34 31 41 46 47 51 43 50 43 43 47 45 48 64 65 61 62 64 70 73 75 78 78 80
31 24 33 28 29 18 26 23 28 25 16 11 25 29 27 26 27 20 17 17 18 25 20 26 27 29 31 31 37 37 38 41 43 43 56 59 58 60 64 71 68 68 67 71 73 77 79 81 82
31 30 30 30 20 29 24 26 23 18 21 20 12 30 28 27 33 25 21 31 22 21 20 26 28 30 35 37 40 42 41 43 44 53 54 58 62 64 67 73 66 71 74 73 75 79 85 83 87
35 43 27 32 30 28 26 25 25 22 21 16 24 16 30 24 22 32 32 29 31 27 25 32 36 35 36 42 47 46 52 53 54 56 59 61 62 64 65 69 74 75 73 75 77 80 83 80 76
35 45 29 35 30 27 29 22 22 20 28 20 16 19 20 23 35 35 30 21 31 44 33 33 43 39 45 42 49 46 49 52 57 60 59 64 67 72 77 73 72 71 71 76 71 69 70 73 75
37 39 23 34 27 33 28 25 22 33 25 27 25 16 18 23 20 28 25 39 30 26 31 34 29 32 35 39 38 43 48 56 55 57 62 62 63 67 68 75 72 69 68 68 67 68 69 71 75
55 32 39 36 37 35 28 25 28 40 13 23 23 26 24 19 21 22 28 31 43 38 42 32 41 34 40 47 51 50 50 53 56 61 62 66 65 62 63 65 68 68 68 67 68 69 73 78 81
42 39 33 35 34 30 37 25 23 30 14 20 18 26 28 26 23 19 22 23 29 27 28 29 30 32 28 38 41 44 40 39 50 59 60 60 59 59 64 64 64 66 67 70 70 72 77 77 79
45 40 51 37 32 32 33 37 29 26 25 18 23 22 28 28 26 25 24 25 27 33 30 35 33 37 30 38 42 37 32 39 53 54 64 56 53 59 63 62 62 65 67 70 73 74 74 77 81
Wind_Direction
285 289 288 286 286 290 293 283 291 290 290 282 274 246 250 249 234 238 234 236 185 204 276 256 250 248 252 265 253 253 259 261 253 254 251 248 246 250 260 254 258 259 262 267 271 266 270 267 268
285 287 288 289 290 292 297 297 299 292 269 269 248 246 240 222 195 178 186 178 180 230 217 276 276 259 250 249 255 249 248 251 252 254 249 249 256 253 250 250 253 261 261 263 265 266 265 268 265
280 289 295 296 295 286 289 271 298 287 268 303 238 233 159 217 189 159 176 182 188 199 174 221 249 245 257 249 262 256 255 250 251 254 258 262 254 256 259 259 252 261 261 268 266 265 265 263 267
291 294 299 299 298 301 307 306 305 302 237 266 249 184 200 218 200 174 165 230 198 233 232 208 225 253 267 272 274 258 258 249 251 252 261 252 252 255 258 263 257 263 258 261 264 267 271 269 268
294 295 295 289 303 304 311 282 105 56 145 223 159 181 239 206 173 188 181 185 200 218 204 233 252 243 245 249 245 249 255 243 265 251 260 257 260 257 250 264 262 249 260 264 262 263 262 268 270
302 303 293 304 306 308 279 296 260 85 143 134 176 186 211 189 211 199 183 186 190 198 206 218 257 243 245 243 245 252 245 262 243 254 250 262 254 265 259 262 255 265 263 263 288 267 274 271 274
305 303 304 299 311 286 263 166 143 162 191 196 159 246 224 248 199 178 180 207 192 212 221 194 225 227 246 260 253 257 258 260 288 253 249 254 262 250 267 265 262 270 263 265 269 257 273 276 279
307 307 309 315 334 3 289 160 136 166 181 163 175 172 193 202 191 187 186 255 211 207 260 208 267 225 231 258 268 251 281 254 255 260 255 257 258 263 254 255 271 270 271 273 274 276 274 279 280
302 310 319 318 340 10 19 184 155 157 158 198 213 200 225 211 204 215 189 201 200 248 253 260 229 242 255 246 269 269 256 244 252 266 262 255 256 264 267 266 266 271 271 274 273 277 277 278 278
310 297 319 323 326 1 12 169 169 172 188 222 204 214 221 217 204 211 208 208 200 206 224 213 221 243 264 267 268 251 254 262 264 259 253 260 253 262 266 265 269 271 272 274 275 274 272 275 275
321 315 317 341 345 26 125 153 186 147 205 222 257 226 220 220 220 211 220 203 205 213 206 211 221 224 229 231 236 243 248 248 251 258 266 265 267 263 263 255 264 268 267 265 270 272 264 274 269
310 313 316 352 35 61 61 165 171 130 237 239 247 254 238 226 221 210 208 212 207 211 220 214 209 220 222 231 230 250 246 252 258 260 260 264 260 262 260 266 259 267 268 269 265 273 277 270 269
303 321 330 354 348 13 107 117 181 214 210 239 275 231 245 227 233 225 222 220 215 198 218 232 208 212 226 229 248 260 248 253 265 263 264 268 271 269 263 261 263 266 272 268 271 271 271 276 278
319 320 346 335 329 345 158 153 181 190 197 281 316 274 264 222 228 227 215 212 209 203 213 219 225 227 232 249 237 256 248 256 264 263 257 266 268 272 269 274 270 263 266 268 270 273 279 278 279
325 332 327 353 348 327 305 296 285 220 242 293 303 273 225 216 227 215 211 199 199 206 214 223 226 224 228 250 240 254 257 255 256 254 265 265 267 271 263 272 266 269 274 276 274 269 271 282 284
309 318 311 339 348 356 296 329 320 297 276 243 256 219 230 199 190 204 211 198 199 213 205 227 233 235 238 245 245 251 250 255 256 261 262 266 268 263 264 269 268 273 271 271 273 278 279 282 282
301 307 345 336 345 347 329 326 303 291 283 278 212 213 236 228 191 199 206 203 202 210 220 224 230 226 238 248 248 243 251 258 262 264 262 263 262 264 269 269 269 272 267 268 274 277 280 284 282
305 311 1 327 334 -0 349 332 295 317 315 291 278 211 190 205 209 201 204 211 215 217 220 222 231 232 236 237 239 244 251 254 258 262 265 266 267 268 268 267 266 270 268 271 274 277 278 283 282
302 297 309 331 325 349 3 336 339 296 281 297 248 227 201 211 212 198 194 198 217 224 225 227 227 231 234 240 243 246 249 252 254 255 261 264 263 271 266 268 265 268 273 279 277 281 279 281 283
287 298 325 327 323 320 357 344 308 268 262 274 271 233 228 202 195 200 207 209 216 210 220 228 231 236 240 241 247 250 252 256 265 252 252 257 261 263 283 271 265 279 282 273 276 276 278 281 285
287 314 294 298 317 331 340 2 338 336 250 242 240 231 233 243 241 212 209 201 211 225 222 233 234 232 236 248 242 246 250 250 254 255 258 256 269 272 273 287 277 272 272 276 279 280 281 283 284
285 314 300 319 306 345 317 345 342 311 341 236 226 255 235 240 225 223 235 215 213 203 220 233 237 235 231 238 242 243 246 246 248 274 261 275 282 279 265 271 274 276 271 277 279 279 281 281 282
278 281 289 299 302 293 338 320 349 354 319 300 238 234 246 230 225 242 251 238 236 220 236 221 234 250 248 241 243 245 268 251 253 246 262 265 265 268 267 261 264 277 278 275 277 281 280 282 283
274 285 291 295 310 297 308 341 327 330 1 326 333 231 237 255 245 249 250 227 245 247 254 234 245 249 254 256 259 262 258 273 273 272 263 267 263 264 266 267 276 271 269 276 279 282 282 284 281
276 291 290 286 310 293 297 338 313 327 355 341 319 315 240 250 273 257 249 236 243 251 254 240 241 245 250 252 253 259 256 260 264 263 264 269 273 273 272 275 277 276 277 276 277 278 278 284 285
264 282 270 285 296 300 283 326 263 279 349 344 309 305 314 267 243 250 262 253 242 234 250 257 246 253 251 249 250 262 270 268 266 264 265 262 266 267 271 275 275 275 278 278 284 284 281 281 285
265 264 268 275 276 293 288 313 248 345 330 332 343 324 301 306 299 254 243 248 254 247 247 254 257 262 267 270 261 261 265 270 270 271 272 272 270 272 275 274 280 285 284 284 284 284 289 290 294
266 256 279 275 294 288 290 317 311 337 307 326 344 332 321 289 296 293 261 239 242 248 251 252 258 266 267 268 270 271 272 278 281 281 280 278 280 280 281 283 286 288 290 288 292 294 296 296 296
258 261 261 265 283 293 308 301 260 325 288 266 260 339 321 311 284 286 297 258 228 262 271 255 269 252 261 280 282 281 283 284 279 273 272 273 276 282 286 288 288 289 290 292 294 295 291 295 296
259 252 272 276 272 287 276 299 290 289 300 282 259 329 321 312 310 280 271 271 254 247 258 260 250 271 270 275 275 277 279 279 272 272 276 272 279 284 284 285 290 291 290 292 291 288 293 294 294